Weather History for Minot AFB, ND

Change the Weather History Date:

Tuesday, October 2, 2012

  Actual Average Record
Temperature  
Mean Temperature 58 °F -  
Max Temperature 70 °F 60 °F 95 °F (1997)
Min Temperature 45 °F 34 °F 17 °F (1999)
Degree Days  
Heating Degree Days 8    
Growing Degree Days 8 (Base 50)    
Moisture  
Dew Point 37 °F    
Average Humidity 47    
Maximum Humidity 73    
Minimum Humidity 33    
Precipitation  
Precipitation 0.00 in - - ()
Sea Level Pressure  
Sea Level Pressure 29.69 in    
Wind  
Wind Speed 16 mph (West)    
Max Wind Speed 24 mph    
Max Gust Speed 32 mph    
Visibility 10 miles    
Events      
Averages and records for this station are not official NWS values.
T = Trace of Precipitation, MM = Missing Value Source: NWS Daily Summary

Daily Weather History Graph

Daily Weather History Graph

Search for Another Location

Airport:

Trip Planner

Search our weather history database for the weather conditions in past years. The results will help you decide how hot, cold, wet, or windy it might be!

Date:

Astronomy

Oct. 02, 2012 Rise Set
Actual Time 7:47 AM CDT 7:21 PM CDT
Civil Twilight 7:15 AM CDT 7:52 PM CDT
Nautical Twilight 6:39 AM CDT 8:28 PM CDT
Astronomical Twilight 6:02 AM CDT 9:05 PM CDT
Moon 8:18 PM CDT (10/2) 10:32 AM CDT (10/2)
Length of Visible Light 12h 36m
Length of Day
11h 34m
Waning Gibbous, 94% of the Moon is Illuminated
Oct 2
Waning Gibbous
Oct 8
Last Quarter
Oct 15
New
Oct 21
First Quarter
Oct 29
Full

Hourly Weather History & Observations

Time (CDT) Temp. Windchill Dew Point Humidity Pressure Visibility Wind Dir Wind Speed Gust Speed Precip Events Conditions
12:55 AM 46.2 °F 40.8 °F 33.4 °F 61% 29.80 in 10.0 mi South 11.5 mph - N/A   Clear
1:55 AM 54.7 °F - 31.5 °F 41% 29.75 in 10.0 mi South 15.0 mph 21.9 mph N/A   Clear
2:55 AM 55.4 °F - 31.1 °F 40% 29.70 in 10.0 mi SSW 18.4 mph 32.2 mph N/A   Clear
3:55 AM 55.9 °F - 32.2 °F 41% 29.65 in 10.0 mi SSW 21.9 mph 29.9 mph N/A   Clear
4:55 AM 55.4 °F - 32.9 °F 43% 29.59 in 10.0 mi SSW 19.6 mph 28.8 mph N/A   Clear
5:55 AM 54.7 °F - 33.4 °F 45% 29.57 in 10.0 mi SSW 21.9 mph 29.9 mph N/A   Clear
6:55 AM 54.3 °F - 33.8 °F 46% 29.57 in 10.0 mi SSW 17.3 mph 24.2 mph N/A   Clear
7:55 AM 54.3 °F - 34.2 °F 47% 29.55 in 10.0 mi SW 13.8 mph - N/A   Clear
8:55 AM 57.2 °F - 34.2 °F 42% 29.58 in 10.0 mi WSW 17.3 mph 24.2 mph N/A   Clear
9:55 AM 61.3 °F - 37.4 °F 41% 29.61 in 10.0 mi West 15.0 mph 23.0 mph N/A   Clear
10:55 AM 62.6 °F - 42.4 °F 48% 29.63 in 10.0 mi NW 19.6 mph 27.6 mph N/A   Clear
11:55 AM 65.3 °F - 41.4 °F 42% 29.65 in 10.0 mi NW 24.2 mph 31.1 mph N/A   Clear
12:55 PM 67.1 °F - 40.8 °F 38% 29.66 in 10.0 mi WNW 20.7 mph 31.1 mph N/A   Clear
1:55 PM 68.7 °F - 39.0 °F 34% 29.65 in 10.0 mi WNW 23.0 mph 32.2 mph N/A   Clear
2:55 PM 69.1 °F - 39.0 °F 33% 29.66 in 10.0 mi WNW 19.6 mph 26.5 mph N/A   Clear
3:55 PM 69.8 °F - 39.4 °F 33% 29.68 in 10.0 mi WNW 15.0 mph 28.8 mph N/A   Scattered Clouds
4:55 PM 68.5 °F - 40.3 °F 36% 29.70 in 10.0 mi WNW 19.6 mph 31.1 mph N/A   Partly Cloudy
5:55 PM 66.6 °F - 41.0 °F 39% 29.73 in 10.0 mi WNW 13.8 mph - N/A   Clear
6:55 PM 63.3 °F - 39.0 °F 41% 29.75 in 10.0 mi WNW 12.7 mph - N/A   Clear
7:55 PM 52.5 °F - 37.8 °F 57% 29.78 in 10.0 mi WNW 6.9 mph - N/A   Clear
8:55 PM 46.4 °F 43.5 °F 36.1 °F 67% 29.81 in 10.0 mi West 5.8 mph - N/A   Clear
9:55 PM 48.2 °F - 37.4 °F 66% 29.81 in 10.0 mi Calm Calm - N/A   Clear
10:55 PM 46.9 °F - 37.8 °F 70% 29.84 in 10.0 mi WNW 10.4 mph - N/A   Clear
11:55 PM 45.5 °F 41.3 °F 37.4 °F 73% 29.87 in 10.0 mi WNW 8.1 mph - N/A   Clear